Location: Grasslands National Park East Block
(49.0708°N, 106.5295°W)
Time: 10:58:18
(UTC-06:00)

Vanguard 1 Rocket - Pass Details

Date: 28 September 2019
Orbit: 650 x 4226 km, 34.3° (Epoch: 19 October)

Event Time Altitude Azimuth Distance (km) Brightness Sun altitude
Rises 20:59:07 0° 270° (W) 8,183 13.4 -21.3°
Reaches altitude 10° 21:05:48 10° 265° (W) 6,785 12.7 -22.3°
Maximum altitude 21:23:11 38° 207° (SSW) 3,453 10.2 -24.9°
Enters shadow 21:29:28 25° 162° (SSE) 3,418 9.9 -25.8°
Drops below altitude 10° 21:33:15 10° 145° (SE) 3,975 - -26.3°
Sets 21:36:02 0° 136° (SE) 4,594 - -26.7°
